Weather in Zelenino

Russia / Ryazan Oblast     54°40′10″N   39°24′38″E
temp.,
°C
wind,
m/s
gust,
m/s
humid.,
%
clouds,
%
prec.,
mm/h
press.,
hPa
HPBL,
m
27 february, sat
sat2700:00+2w8168999 0.0 1002682
03:00+1wnw8158881 0.0 1002899
06:00+1wnw101692100 0.1 10011035
09:00−6nnw81484100 0.8 1004780
12:00−7nnw7118572 0.0 1007644
15:00−5nnw698771 0.0 1009642
18:00−8nnw349158 0.0 101083
21:00−9nnw349437 0.0 101359
28 february, sun
sun2800:00−9nnw359679 0.0 1014117
03:00−11nnw339651 0.0 101549
06:00−12nw239532 0.0 101534
09:00−10nnw249561 0.2 1016203
12:00−6nnw239097 0.1 1015340
15:00−4nw349198 0.1 1016446
18:00−4nnw2394100 0.1 101797
21:00−6ne1296100 0.1 101921
1 march, mon
mon100:00−7n129785 0.1 102021
03:00−8sse119792 0.2 102221
06:00−8sw119795 0.1 102221
09:00−7sw129688 0.1 102430
12:00−3wsw239169 0.0 1023298
15:00−1w358977 0.1 1023610
18:00−2wsw3790100 0.0 1022202
21:00−1wsw41093100 0.1 1020379
2 march, tue
tue200:000wsw71393100 0.0 1017528
03:00+1w61391100 0.1 1014545
06:00+1w71392100 0.0 1010710
09:00+1wnw71398100 0.4 1009645
12:00+1nw71399100 0.1 1008813
15:00+1nw6129296 0.3 1008823
18:00−1nw6148895 0.1 1010651
21:00−2nw7148896 0.1 1011565
3 march, wed
wed300:00−2nw7139083 0.1 1012677
03:00−3nw7148786 0.1 1013793
06:00−4nnw61490100 0.1 1014900
09:00−4nnw7148899 0.3 1016797
12:00−2nnw7108460 0.0 1017924
15:00−1nw698780 0.1 10181047
18:00−3nw5118788 0.1 1018305
21:00−3wnw4109086 0.1 1019296